This is the latest recevied weather packets stored in our database for station/object BAGASKAR. If no packets are shown the sender has not sent any weather packets the latest 10 day(s).
| Time | Temp. | Humidity | Pressure | Rain* | Wind** | Luminosity | Snow |
|---|---|---|---|---|---|---|---|
| 1777466810 | 10° C | 29% | 1024.8 hPa | - | - | - | - |
| 1777465609 | 8.89° C | 34% | 1025 hPa | - | - | - | - |
| 1777464409 | 8.89° C | 35% | 1025.1 hPa | - | - | - | - |
| 1777463209 | 8.89° C | 38% | 1025.2 hPa | - | - | - | - |
| 1777462009 | 8.33° C | 40% | 1025.3 hPa | - | - | - | - |
| 1777460810 | 8.33° C | 36% | 1025.5 hPa | - | - | - | - |
| 1777459609 | 7.78° C | 37% | 1025.6 hPa | - | - | - | - |
| 1777458410 | 7.78° C | 37% | 1025.5 hPa | - | - | - | - |
| 1777457209 | 7.78° C | 38% | 1025.6 hPa | - | - | - | - |
| 1777456009 | 6.67° C | 38% | 1025.7 hPa | - | - | - | - |
| 1777454809 | 6.67° C | 38% | 1025.8 hPa | - | - | - | - |
| 1777453609 | 6.11° C | 44% | 1025.8 hPa | - | - | - | - |
| 1777452409 | 5.56° C | 42% | 1025.9 hPa | - | - | - | - |
| 1777451209 | 5.56° C | 46% | 1025.9 hPa | - | - | - | - |
| 1777450009 | 5.56° C | 42% | 1025.9 hPa | - | - | - | - |
| 1777448809 | 5° C | 49% | 1025.9 hPa | - | - | - | - |
| 1777447608 | 5° C | 46% | 1025.8 hPa | - | - | - | - |
| 1777446409 | 4.44° C | 47% | 1025.8 hPa | - | - | - | - |
| 1777445208 | 4.44° C | 51% | 1025.8 hPa | - | - | - | - |
| 1777444008 | 4.44° C | 53% | 1025.8 hPa | - | - | - | - |
| 1777442808 | 3.33° C | 55% | 1025.8 hPa | - | - | - | - |
| 1777441608 | 2.78° C | 59% | 1025.7 hPa | - | - | - | - |
| 1777440408 | 2.22° C | 59% | 1025.7 hPa | - | - | - | - |
| 1777439208 | 2.22° C | 62% | 1025.6 hPa | - | - | - | - |
| 1777438008 | 1.67° C | 61% | 1025.5 hPa | - | - | - | - |
* Rain since midnight (hover to see other rain measurements)
** Current wind speed in m/s (hover to see current wind gust speed)